Location: Unspecified
(43.3830°N, 0.0000°E)
Time: 03:31:54
(UTC+00:00)

SR - Visible Passes

Search period start: 16 June 2019 00:00
Search period end: 26 June 2019 00:00
Orbit: 582 x 874 km, 66.7° (Epoch: 15 June)

Date Brightness Start Highest point End Pass type
(mag) Time Alt. Az. Time Alt. Az. Time Alt. Az.
20 Jun ? 03:07:35 10° SSE 03:10:43 20° ESE 03:13:52 10° ENE visible
22 Jun ? 03:09:14 10° S 03:13:12 41° ESE 03:17:15 10° NE visible
23 Jun ? 02:20:52 10° SSE 02:23:52 19° ESE 02:26:53 10° ENE visible
24 Jun ? 03:12:08 13° SSW 03:15:51 88° ESE 03:20:11 10° NNE visible
25 Jun ? 02:23:56 20° S 02:26:21 38° ESE 02:30:21 10° NE visible
